Regional Weather Roundup
Issued by NWS Cleveland, OH

Home | Current Version | Previous Version | Graphics & Text | Print | Product List | Glossary On
Versions: 1 2 3 4 5 6 7 8 9 10 11 12 13 14 15 16 17 18 19 20 21 22 23 24 25 26 27 28 29 30 31 32 33 34 35 36 37 38 39 40 41 42 43 44 45 46 47 48 49 50
000
ASUS41 KCLE 280700
RWRCLE
OHIO REGIONAL WEATHER ROUNDUP
NATIONAL WEATHER SERVICE WILMINGTON, OH
300 AM EDT THU JUL 28 2016

NOTE: "FAIR" INDICATES FEW OR NO CLOUDS BELOW 12,000 FEET WITH NO
SIGNIFICANT WEATHER AND/OR OBSTRUCTIONS TO VISIBILITY.

OHZ001>008-015>018-024>027-034-035-043-044-280800-
   NORTHWEST OHIO

CITY           SKY/WX    TMP DP  RH WIND       PRES   REMARKS
DEFIANCE       FAIR      72  65  78 CALM      29.91F
FINDLAY        FAIR      70  62  76 CALM      29.91F
TOLEDO EXPRESS NOT AVBL
TOLEDO EXEC    FAIR      72  65  78 CALM      29.93S
LIMA           FAIR      71  66  84 CALM      29.93F
$$

OHZ009>014-019>023-028>033-038-089-280800-
   NORTHEAST OHIO

CITY           SKY/WX    TMP DP  RH WIND       PRES   REMARKS
CLE-HOPKINS    MOCLDY    71  59  65 S3        29.95S
CLE-LAKEFRONT  FAIR      76  59  55 SE8       29.91S
CUY CO. ARPT   NOT AVBL
LORAIN-ELYRIA  FAIR      66  60  81 CALM      29.94R
ASHTABULA      FAIR      64  62  93 S3        29.94F
AKRON-CANTON   FAIR      72  59  63 E7        29.95F
WOOSTER        NOT AVBL
MANSFIELD      FAIR      70  62  76 S5        29.96S
YOUNGSTOWN     FAIR      66  61  84 E6        29.95F
$$

OHZ042-051>053-060>062-070>072-077>081-280800-
  SOUTHWEST OHIO

CITY           SKY/WX    TMP DP  RH WIND       PRES   REMARKS
CINC-COVINGTON CLOUDY    77  75  93 CALM      29.93F
CINC-LUNKEN    CLOUDY    76  76 100 CALM      29.92F FOG
HAMILTON       MOCLDY    74  70  87 CALM      29.93F
DAYTON         NOT AVBL
WRIGHT-PAT AFB FAIR      74  69  83 SW2       29.92F
DAYTON GENERAL LGT RAIN  76  66  71 CALM      29.93F
WILMINGTON     FAIR      75  70  84 CALM      29.94F
$$

OHZ036-037-039>041-045>050-054>059-063>069-073>076-082>088-280800-
  CENTRAL AND SOUTHEAST OHIO

CITY           SKY/WX    TMP DP  RH WIND       PRES   REMARKS
COLUMBUS       CLOUDY    77  65  66 NE3       29.92S
OSU AIRPORT    FAIR      76  68  76 NE3       29.93S
BOLTON FIELD   NOT AVBL
RICKENBACK AFB NOT AVBL
NEWARK         FAIR      74  67  78 N3        29.93F
MARION         FAIR      71  63  75 SE3       29.94F
LANCASTER      FAIR      76  73  91 SE3       29.93F
ZANESVILLE     MOCLDY    77  70  79 CALM      29.94S
NEW PHILLY     FAIR      72  63  73 CALM      29.95S
$$




USA.gov is the U.S. government's official web portal to all federal, state and local government web resources and services.